FW4383 Weather Reports


Display with metric or nautical units.
time (UTC)temp
F
wind
direction
speed
MPH
gust
MPH
rain 1hr
in
rain 24hr
in
rain mn
in
humidity
%
barometer
mb
20260506191536 67 270 7.0 17.0 0.00 0.00 0.00 60 1020.8
20260506190037 67 271 6.0 18.0 0.00 0.00 0.00 61 1020.9
20260506183034 66 273 8.0 18.0 0.00 0.00 0.00 64 1021.0
20260506181609 66 287 5.0 13.0 0.00 0.00 0.00 65 1020.8
20260506180035 65 271 5.0 16.0 0.00 0.00 0.00 66 1020.9
20260506171610 64 269 7.0 14.0 0.00 0.00 0.00 67 1020.7
20260506170108 64 265 10.0 22.0 0.00 0.00 0.00 68 1020.4
20260506164534 64 301 10.0 18.0 0.00 0.00 0.00 69 1020.3
20260506161535 62 264 6.0 22.0 0.00 0.00 0.00 72 1021.2
20260506160035 62 259 7.0 21.0 0.00 0.00 0.00 72 1021.1
20260506154534 62 259 8.0 18.0 0.00 0.00 0.00 73 1020.9
20260506151535 62 264 9.0 17.0 0.00 0.00 0.00 71 1020.5
20260506150033 61 261 8.0 20.0 0.00 0.00 0.00 71 1020.4
20260506144535 61 262 8.0 16.0 0.00 0.00 0.00 72 1020.5
20260506143030 60 261 9.0 17.0 0.00 0.00 0.00 72 1020.4
20260506141533 60 253 7.0 16.0 0.00 0.00 0.00 71 1020.3
20260506140037 60 242 7.0 15.0 0.00 0.00 0.00 71 1020.1
20260506134534 60 243 7.0 17.0 0.00 0.00 0.00 71 1020.0
20260506133034 59 246 6.0 13.0 0.00 0.00 0.00 72 1020.0
20260506131533 59 244 5.0 14.0 0.00 0.00 0.00 73 1020.0
20260506130033 59 255 6.0 14.0 0.00 0.00 0.00 73 1019.9
20260506124532 59 243 6.0 15.0 0.00 0.00 0.00 73 1019.8
20260506123033 59 256 4.0 13.0 0.00 0.00 0.00 73 1019.6
20260506121536 59 248 6.0 14.0 0.00 0.00 0.00 73 1019.4
20260506114534 59 255 6.0 14.0 0.00 0.00 0.00 73 1019.2
20260506113035 59 245 5.0 12.0 0.00 0.00 0.00 72 1019.0
20260506111610 60 242 6.0 15.0 0.00 0.00 0.00 71 1018.9
20260506110030 60 238 6.0 18.0 0.00 0.00 0.00 71 1018.7
20260506104609 60 240 8.0 19.0 0.00 0.00 0.00 72 1018.6
20260506103036 59 244 6.0 15.0 0.00 0.00 0.00 73 1018.5
20260506101534 59 254 6.0 15.0 0.00 0.00 0.00 74 1018.5
20260506100058 59 259 5.0 12.0 0.00 0.00 0.00 75 1018.5
20260506093035 59 246 10.0 18.0 0.00 0.00 0.00 75 1018.2
20260506091536 59 248 9.0 20.0 0.00 0.00 0.00 75 1018.2
20260506090037 59 246 8.0 18.0 0.00 0.00 0.00 75 1018.1
20260506084536 59 245 6.0 18.0 0.00 0.00 0.00 75 1018.1
20260506081535 59 249 6.0 15.0 0.00 0.00 0.00 75 1017.9
20260506073038 60 258 7.0 16.0 0.00 0.00 0.00 75 1017.6
20260506061649 60 269 11.0 20.0 0.00 0.00 0.00 75 1017.0
20260506060141 60 267 12.0 20.0 0.00 0.00 0.00 75 1017.0
20260506043035 60 275 9.0 18.0 0.00 0.00 0.00 73 1016.3
20260506041609 60 279 10.0 21.0 0.00 0.00 0.00 73 1016.3
20260506040043 60 278 11.0 20.0 0.00 0.00 0.00 73 1016.1
20260506034534 60 278 10.0 18.0 0.00 0.00 0.00 72 1015.8
20260506033109 61 273 12.0 23.0 0.00 0.00 0.00 71 1015.5
20260506031535 61 278 13.0 24.0 0.00 0.00 0.00 70 1015.1
20260506030032 62 276 14.0 25.0 0.00 0.00 0.00 68 1014.9
20260506024609 63 272 13.0 24.0 0.00 0.00 0.00 67 1014.8
20260506023029 63 267 11.0 20.0 0.00 0.00 0.00 66 1014.8
20260506021533 64 270 11.0 21.0 0.00 0.00 0.00 64 1014.6
20260506020141 65 261 9.0 21.0 0.00 0.00 0.00 63 1014.6
20260506011535 68 242 5.0 11.0 0.00 0.00 0.00 60 1014.5
20260506004530 68 240 8.0 18.0 0.00 0.00 0.00 59 1014.3
20260506003035 69 253 8.0 17.0 0.00 0.00 0.00 58 1014.1
20260506000036 69 265 7.0 17.0 0.00 0.00 0.00 58 1014.2
20260505234530 69 266 11.0 23.0 0.00 0.00 0.00 58 1014.3
20260505233037 69 269 9.0 19.0 0.00 0.00 0.00 58 1014.3
20260505231610 69 271 10.0 20.0 0.00 0.00 0.00 57 1014.4
20260505230032 69 272 9.0 18.0 0.00 0.00 0.00 58 1014.5
20260505224536 69 273 11.0 23.0 0.00 0.00 0.00 58 1014.6
20260505223042 69 272 11.0 21.0 0.00 0.00 0.00 57 1014.7
20260505223035 69 273 8.0 20.0 0.00 0.00 0.00 58 1014.8
20260505214537 68 271 12.0 24.0 0.00 0.00 0.00 58 1015.1
20260505213035 69 271 10.0 22.0 0.00 0.00 0.00 58 1015.2
20260505211536 68 270 11.0 20.0 0.00 0.00 0.00 59 1015.2
20260505210037 68 273 10.0 22.0 0.00 0.00 0.00 59 1015.4
20260505204536 67 271 11.0 22.0 0.00 0.00 0.00 60 1015.6
20260505203033 67 271 12.0 22.0 0.00 0.00 0.00 60 1015.6
20260505201534 67 276 11.0 24.0 0.00 0.00 0.00 60 1015.8
20260505200038 66 269 10.0 21.0 0.00 0.00 0.00 61 1015.9
20260505194535 66 269 11.0 24.0 0.00 0.00 0.00 61 1015.9